STARLINK-2604, 48374

Orbit data source: Space-Track

STARLINK-2604, 48374 is a payload satellite owned by SpaceX/Seattle (US) in LEO that was launched on Tue, 04 May 2021 UTC via an FALCON 9 launch vehicle from the Air Force Eastern Test Range (AFETR). Payload-class satellites include a variety of spacecraft equipped with specific instruments for various scientific and technological missions. These include communications satellites like Starlink; space stations such as the ISS; scientific satellites like the Hubble; Earth observation satellites from companies like Planet Labs, Umbra, and HawkEye 360; GPS; miniature CubeSats for education and research; and military/defense satellites.

Loading next visibility...
Identifier
48374, 2021-038X
Orbit
LEO
Country
Flag of USUS
Related business
Manufacturer
SpaceX/Seattle
Mission
Operational Commercial Communications
Bus & Motor
STARLINK, Unknown motor
Mass
260 kg wet, ~248 kg dry
Launch date (UTC)
2021-05-04 (5 years ago)
Launch vehicle
FALCON 9
Launch site
Air Force Eastern Test Range (AFETR)
Object type
Payload
Rocket body
Debris
Shape & HBR
Box + 1 Pan, 10.1 m
Radar Cross Section
13.562 m², Large (>1 m²)

Expand to show TLE details & history
Last TLE update: 2 days ago

TLE from 2 days ago
0 STARLINK-2604
1 48374U 21038X   26171.42711897  .00000217  00000-0  18760-4 0  9992
2 48374  53.1583 229.8295 0001176  76.9639 283.1494 15.31703566282960
Epoch: 2026-06-20T10:15Z
TLE epoch observation values (Epoch: 2026-06-20T10:15:03.079Z)
Latitude
0.00003°
Longitude
167.42479°
Altitude
471.446 km
Speed
7.632 km/s
True Right ascension
15h 19m 19s
True Declination
0° 00' 00"
Sunlit
Object was in full shadow at epoch
Visualization orbit readout
Latitude
Unknown
Longitude
Unknown
Altitude
Unknown
Speed
Unknown
Apparent Right ascension
Unknown
Apparent Declination
Unknown
Sunlit
N/A
Visualization observer readout
Local Sidereal Time
21:26:06
Azimuth
Unknown
Elevation
Unknown
Doppler factor
Unknown
Orbital elements
Apogee altitude
471.792 km
Perigee altitude
470.181 km
Semi-major axis
6,849.123 km
Eccentricity
0.00012
Inclination
53.1583°
RAAN
229.8295°
Arg. of periapsis
76.9639°
True anomaly
283.13628°
Mean anomaly
283.1494°
Eccentric anomaly
283.14284°
Mean motion
3.82905 °/min
Orbital period
94.02 mins
BSTAR
0.00001876
Loading maneuver chart data...
Computing Atmospheric mass density...

Documentation

Showing up to 5 results
|